[[{"header":{"parameterUnit":"m.s-1","parameterCategory":1,"la1":30.2991,"la2":30.254,"lo1":-89.0895,"lo2":-89.0444,"dx":0.0017,"dy":0.0017,"nx":28,"ny":28,"refTime":"2023-01-10T15:00:00:Z","depth":0,"parameterNumber":2,"parameterNumberName":"U-component_of_WINDS"},"data":[0,0,0,0,0,0,0,0,0,0,0,0,0,0,0,0,0,0,0,0,0,0,0,0,0,0,0,0,0,0,0,0,0,0,0,0,0,0,0,0,0,0,0,0,0,0,0,0,0,0,0,0,0,0,0,0,0,0,-1.3793,-1.3793,0,-1.3829,-1.383,-1.383,-1.3782,-1.3781,-1.3779,-1.3777,-1.3815,-1.3817,-1.382,0,0,0,0,0,0,0,0,0,0,0,0,0,-1.3682,-1.3684,-1.3793,-1.3793,-1.3794,-1.3829,-1.383,-1.383,-1.3783,-1.3781,-1.3779,-1.3777,-1.3814,-1.3817,-1.382,0,0,0,0,0,0,0,0,0,0,0,0,0,-1.3725,-1.3685,-1.3793,-1.3774,-1.3773,-1.3829,-1.383,-1.383,-1.3783,-1.3781,-1.3778,-1.3776,-1.3813,-1.3817,-1.3821,-1.3897,0,0,-1.3833,-1.3834,0,0,0,0,0,0,0,0,-1.3723,-1.373,-1.3777,-1.3776,-1.3774,-1.3799,-1.3804,-1.3853,-1.3784,-1.3779,-1.3777,-1.3774,-1.3812,-1.3816,-1.3828,-1.3899,-1.39,-1.3833,-1.3835,-1.3837,-1.3838,0,0,0,0,0,0,0,-1.372,-1.3728,-1.3807,-1.3777,-1.3776,-1.3764,-1.3767,-1.3813,-1.381,-1.378,-1.3776,-1.3781,-1.3811,-1.3824,-1.3829,-1.3901,-1.3833,-1.3836,-1.3839,-1.384,-1.4034,-1.4037,0,0,0,0,0,0,-1.3719,-1.3726,-1.3806,-1.3808,-1.3742,-1.3768,-1.3772,-1.3794,-1.3809,-1.3809,-1.3783,-1.3779,-1.3819,-1.3824,-1.383,-1.3919,-1.3837,-1.3841,-1.3843,-1.4031,-1.4035,-1.4038,0,0,0,0,0,0,-1.3717,-1.3727,-1.3805,-1.3766,-1.3775,-1.3773,-1.3798,-1.3796,-1.3809,-1.3812,-1.3811,-1.3798,-1.3817,-1.3824,-1.388,-1.3919,-1.3843,-1.3846,-1.4028,-1.4032,-1.4036,-1.4098,0,0,0,0,0,0,-1.3714,-1.3726,-1.3755,-1.3767,-1.3777,-1.3855,-1.38,-1.3798,-1.3816,-1.3811,-1.3825,-1.3825,-1.3816,-1.3875,-1.3884,-1.3923,-1.3849,-1.4025,-1.403,-1.4035,-1.4092,-1.4104,-1.4114,0,0,0,0,0,-1.371,-1.3772,-1.3757,-1.3767,-1.3814,-1.3857,-1.3863,-1.385,-1.382,-1.3848,-1.385,-1.3825,-1.3914,-1.3881,-1.3891,-1.3932,-1.4022,-1.4028,-1.4035,-1.4088,-1.4102,-1.4113,0,0,0,0,0,0,-1.3765,-1.3773,-1.3757,-1.3824,-1.384,-1.3849,-1.3885,-1.3866,-1.3891,-1.3885,-1.3868,-1.3872,-1.3931,-1.3937,-1.39,-1.4006,-1.3963,-1.3971,-1.4,-1.4013,-1.4023,-1.402,-1.3852,0,0,0,0,0,-1.3785,-1.3819,-1.3825,-1.3883,-1.3892,-1.3888,-1.3906,-1.3895,-1.3911,-1.3918,-1.3923,-1.394,-1.3971,-1.3993,-1.4022,-1.4093,-1.4095,-1.4127,-1.4137,-1.4146,-1.4153,-1.419,-1.4204,-1.4059,-1.4058,-1.4058,0,0,-1.3826,-1.3835,-1.3858,-1.3894,-1.3906,-1.3942,-1.3894,-1.3934,-1.396,-1.3924,-1.3977,-1.3982,-1.3999,-1.4063,-1.4091,-1.407,-1.4194,-1.4154,-1.4161,-1.4163,-1.4198,-1.4212,-1.4224,-1.4063,-1.4062,-1.4061,0,0,-1.3919,-1.393,-1.3979,-1.3992,-1.4009,-1.4005,-1.4017,-1.4029,-1.4031,-1.4084,-1.4057,-1.4088,-1.4143,-1.4156,-1.417,-1.4268,-1.4246,-1.4278,-1.4333,-1.4369,-1.4381,-1.4391,-1.4425,-1.4437,-1.4286,-1.4286,-1.4286,0,-1.3968,-1.4022,-1.4007,-1.4049,-1.4066,-1.4034,-1.4084,-1.4097,-1.4123,-1.4135,-1.4111,-1.4178,-1.4188,-1.4254,-1.4278,-1.429,-1.4303,-1.4276,-1.438,-1.439,-1.4399,-1.4431,-1.4444,-1.429,-1.4289,-1.4289,-1.4289,0,-1.4081,-1.4118,-1.4156,-1.4182,-1.4203,-1.4248,-1.424,-1.4263,-1.4251,-1.4249,-1.4303,-1.4314,-1.4344,-1.4359,-1.4347,-1.4423,-1.4409,-1.4383,-1.4339,-1.4417,-1.4447,-1.4459,-1.4295,-1.4294,-1.4293,-1.4292,0,0,-1.4209,-1.4226,-1.424,-1.4251,-1.4268,-1.4296,-1.4341,-1.437,-1.4389,-1.4409,-1.4445,-1.4492,-1.4467,-1.4483,-1.4473,-1.4505,-1.458,-1.4474,-1.4475,-1.4493,-1.4663,-1.4682,-1.4696,-1.4566,-1.4568,-1.457,-1.4661,0,-1.4301,-1.4377,-1.4365,-1.4439,-1.4473,-1.4443,-1.4481,-1.4496,-1.4496,-1.4524,-1.4525,-1.4558,-1.4524,-1.4533,-1.4563,-1.4565,-1.4614,-1.4558,-1.4598,-1.46,-1.4594,-1.4712,-1.4732,-1.4818,-1.4673,-1.4675,-1.4676,0,-1.4419,-1.4442,-1.4519,-1.453,-1.4544,-1.4578,-1.4604,-1.4632,-1.4647,-1.4645,-1.4663,-1.4646,-1.4689,-1.4646,-1.4705,-1.4667,-1.4683,-1.4686,-1.4689,-1.4691,-1.4642,-1.4717,-1.4845,-1.4857,-1.4695,-1.4693,-1.4692,0,-1.4504,-1.4554,-1.4606,-1.4617,-1.4631,-1.4656,-1.4663,-1.4676,-1.4694,-1.4716,-1.4728,-1.4755,-1.477,-1.4792,-1.4782,-1.4752,-1.4843,-1.4799,-1.4842,-1.4842,-1.4862,-1.486,-1.4993,-1.4874,-1.4874,-1.4874,-1.4873,0,-1.4608,-1.4655,-1.4644,-1.4676,-1.4728,-1.4714,-1.4767,-1.477,-1.4782,-1.4814,-1.479,-1.482,-1.4807,-1.4836,-1.483,-1.4879,-1.4886,-1.4885,-1.4883,-1.4887,-1.4887,-1.4896,-1.4889,-1.4877,-1.4876,-1.4876,-1.4875,0,-1.471,-1.4705,-1.4759,-1.4768,-1.4772,-1.481,-1.4817,-1.4847,-1.4845,-1.4886,-1.4894,-1.4892,-1.4925,-1.4918,-1.4955,-1.495,-1.5012,-1.5003,-1.5007,-1.5004,-1.5047,-1.5042,-1.5189,-1.5207,-1.5078,-1.5079,-1.508,0,-1.4776,-1.4812,-1.4825,-1.4844,-1.4853,-1.4885,-1.4903,-1.4891,-1.4911,-1.4931,-1.4958,-1.4989,-1.5013,-1.5067,-1.5068,-1.5096,-1.5087,-1.5136,-1.5091,-1.5093,-1.5086,-1.5083,-1.5086,-1.5145,-1.5146,-1.5148,-1.5149,0,-1.4894,-1.4889,-1.4916,-1.4942,-1.4964,-1.4985,-1.5002,-1.502,-1.5009,-1.5032,-1.5065,-1.5084,-1.5121,-1.5152,-1.5178,-1.5185,-1.5165,-1.5163,-1.5174,-1.5178,-1.5178,-1.5177,-1.503,-1.516,-1.5158,-1.5158,-1.5157,-1.5157,-1.4979,-1.5009,-1.5022,-1.5053,-1.5065,-1.5082,-1.511,-1.5112,-1.5139,-1.5168,-1.5159,-1.5197,-1.5211,-1.5243,-1.5254,-1.5283,-1.5264,-1.5281,-1.5285,-1.5288,-1.5293,-1.5175,-1.5288,-1.5287,-1.5287,-1.5287,-1.5286,0,-1.5094,-1.5101,-1.5129,-1.5155,-1.5179,-1.5158,-1.5176,-1.5198,-1.5231,-1.5246,-1.527,-1.5308,-1.5338,-1.5341,-1.5369,-1.5392,-1.5383,-1.5399,-1.5397,-1.5399,-1.5309,-1.5296,-1.5406,-1.5406,-1.5406,-1.5406,-1.5406,-1.5406,-1.5156,-1.5206,-1.5203,-1.5257,-1.5264,-1.5301,-1.5313,-1.5328,-1.534,-1.5383,-1.5407,-1.541,-1.542,-1.5448,-1.5474,-1.5474,-1.5485,-1.5504,-1.5501,-1.5417,-1.5405,-1.5394,-1.5381,-1.5507,-1.5507,-1.5588,-1.5589,-1.5589]},{"header":{"parameterUnit":"m.s-1","parameterCategory":1,"la1":30.2991,"la2":30.254,"lo1":-89.0895,"lo2":-89.0444,"dx":0.0017,"dy":0.0017,"nx":28,"ny":28,"refTime":"2023-01-10T15:00:00:Z","depth":0,"parameterNumber":3,"parameterNumberName":"V-component_of_WINDS"},"data":[0,0,0,0,0,0,0,0,0,0,0,0,0,0,0,0,0,0,0,0,0,0,0,0,0,0,0,0,0,0,0,0,0,0,0,0,0,0,0,0,0,0,0,0,0,0,0,0,0,0,0,0,0,0,0,0,0,0,-1.37,-1.37,0,-1.3705,-1.3706,-1.3706,-1.3713,-1.3713,-1.3713,-1.3713,-1.3717,-1.3717,-1.3717,0,0,0,0,0,0,0,0,0,0,0,0,0,-1.3694,-1.3694,-1.37,-1.37,-1.37,-1.3705,-1.3706,-1.3706,-1.3713,-1.3713,-1.3713,-1.3714,-1.3718,-1.3717,-1.3717,0,0,0,0,0,0,0,0,0,0,0,0,0,-1.3698,-1.3694,-1.37,-1.3705,-1.3705,-1.3705,-1.3706,-1.3706,-1.3713,-1.3713,-1.3713,-1.3714,-1.3718,-1.3717,-1.3717,-1.3713,0,0,-1.3717,-1.3717,0,0,0,0,0,0,0,0,-1.3698,-1.3698,-1.3704,-1.3704,-1.3705,-1.3709,-1.3705,-1.3708,-1.3713,-1.371,-1.3713,-1.3714,-1.3714,-1.3715,-1.3715,-1.3713,-1.3714,-1.3717,-1.3717,-1.3717,-1.3717,0,0,0,0,0,0,0,-1.3697,-1.3698,-1.3702,-1.3704,-1.3705,-1.3706,-1.3706,-1.3706,-1.3711,-1.371,-1.3711,-1.3711,-1.3715,-1.3715,-1.3715,-1.3714,-1.3717,-1.3717,-1.3717,-1.3717,-1.3707,-1.3707,0,0,0,0,0,0,-1.3697,-1.3698,-1.3702,-1.3702,-1.3702,-1.3706,-1.3706,-1.3707,-1.3711,-1.3712,-1.3711,-1.3712,-1.3715,-1.3715,-1.3715,-1.371,-1.3717,-1.3717,-1.3717,-1.3708,-1.3707,-1.3707,0,0,0,0,0,0,-1.3697,-1.3697,-1.3702,-1.37,-1.3701,-1.3706,-1.3706,-1.3707,-1.3708,-1.3712,-1.3713,-1.3711,-1.3715,-1.3715,-1.3714,-1.371,-1.3717,-1.3717,-1.3708,-1.3707,-1.3707,-1.3699,0,0,0,0,0,0,-1.3696,-1.3697,-1.3696,-1.37,-1.3701,-1.37,-1.3706,-1.3707,-1.3708,-1.3709,-1.3712,-1.3712,-1.3715,-1.3714,-1.3713,-1.371,-1.3717,-1.3708,-1.3708,-1.3707,-1.37,-1.3698,-1.3697,0,0,0,0,0,-1.3696,-1.3694,-1.3696,-1.3696,-1.37,-1.37,-1.3701,-1.3705,-1.3708,-1.3706,-1.3709,-1.3712,-1.3711,-1.3713,-1.3713,-1.371,-1.3708,-1.3708,-1.3707,-1.37,-1.3699,-1.3698,0,0,0,0,0,0,-1.3689,-1.3694,-1.3697,-1.3696,-1.3698,-1.3702,-1.37,-1.3703,-1.3704,-1.3705,-1.3709,-1.371,-1.3707,-1.3708,-1.3711,-1.3705,-1.371,-1.3709,-1.3704,-1.3703,-1.3702,-1.3702,-1.3717,0,0,0,0,0,-1.3687,-1.3688,-1.3692,-1.3691,-1.3691,-1.3695,-1.3696,-1.3699,-1.3701,-1.3701,-1.3703,-1.3705,-1.3704,-1.3704,-1.3704,-1.37,-1.37,-1.3697,-1.3696,-1.3695,-1.3695,-1.3691,-1.369,-1.3705,-1.3705,-1.3705,0,0,-1.3684,-1.3687,-1.3687,-1.3689,-1.3691,-1.369,-1.3696,-1.3696,-1.3695,-1.3701,-1.3699,-1.3701,-1.3702,-1.3699,-1.3698,-1.37,-1.369,-1.3695,-1.3694,-1.3694,-1.3691,-1.3689,-1.3688,-1.3705,-1.3705,-1.3705,0,0,-1.3677,-1.368,-1.3678,-1.3679,-1.3682,-1.3685,-1.3684,-1.3687,-1.3689,-1.3687,-1.3691,-1.369,-1.369,-1.369,-1.369,-1.3682,-1.3685,-1.3682,-1.3676,-1.3673,-1.3671,-1.367,-1.3666,-1.3665,-1.3681,-1.3681,-1.3681,0,-1.3672,-1.3672,-1.3677,-1.3676,-1.3676,-1.3682,-1.3679,-1.368,-1.3683,-1.3682,-1.3685,-1.3684,-1.3685,-1.3681,-1.3679,-1.368,-1.3678,-1.3682,-1.3671,-1.367,-1.3669,-1.3666,-1.3664,-1.3681,-1.3681,-1.3681,-1.3681,0,-1.3665,-1.3665,-1.3664,-1.3665,-1.3666,-1.3664,-1.3668,-1.3667,-1.367,-1.3672,-1.3669,-1.3671,-1.3671,-1.367,-1.3673,-1.3666,-1.3667,-1.3671,-1.3675,-1.3667,-1.3664,-1.3663,-1.368,-1.368,-1.368,-1.3681,0,0,-1.3655,-1.3659,-1.3658,-1.3658,-1.3661,-1.366,-1.3658,-1.3658,-1.3657,-1.3658,-1.3656,-1.3655,-1.3657,-1.3658,-1.366,-1.3657,-1.3649,-1.3661,-1.3661,-1.3658,-1.3641,-1.3638,-1.3636,-1.3651,-1.3651,-1.3651,-1.364,0,-1.3648,-1.3645,-1.3649,-1.3645,-1.3644,-1.3649,-1.3647,-1.3648,-1.3649,-1.3648,-1.3649,-1.3648,-1.3652,-1.3652,-1.365,-1.3651,-1.3646,-1.3652,-1.3648,-1.3648,-1.3647,-1.3634,-1.3631,-1.3621,-1.3639,-1.3639,-1.3639,0,-1.364,-1.364,-1.3636,-1.3638,-1.3638,-1.3636,-1.3635,-1.3635,-1.3635,-1.3636,-1.3636,-1.3638,-1.3635,-1.364,-1.3635,-1.3639,-1.3638,-1.3638,-1.3638,-1.3637,-1.3642,-1.3632,-1.3618,-1.3616,-1.3637,-1.3637,-1.3637,0,-1.3631,-1.3631,-1.3628,-1.3628,-1.363,-1.3629,-1.3629,-1.363,-1.3629,-1.3629,-1.3628,-1.3627,-1.3626,-1.3625,-1.3627,-1.363,-1.3621,-1.3626,-1.3621,-1.3621,-1.3618,-1.3618,-1.3603,-1.3619,-1.3619,-1.3619,-1.3619,0,-1.3623,-1.362,-1.3624,-1.3622,-1.3619,-1.3623,-1.3619,-1.362,-1.362,-1.3618,-1.3621,-1.3619,-1.3622,-1.362,-1.3621,-1.3616,-1.3616,-1.3616,-1.3616,-1.3615,-1.3615,-1.3614,-1.3614,-1.3618,-1.3618,-1.3619,-1.3619,0,-1.3613,-1.3616,-1.3613,-1.3615,-1.3615,-1.3612,-1.3613,-1.3611,-1.3612,-1.3609,-1.3609,-1.3611,-1.3608,-1.361,-1.3607,-1.3608,-1.3601,-1.3603,-1.3601,-1.3601,-1.3595,-1.3595,-1.3578,-1.3575,-1.3593,-1.3593,-1.3593,0,-1.3607,-1.3605,-1.3606,-1.3605,-1.3606,-1.3604,-1.3603,-1.3606,-1.3605,-1.3604,-1.3602,-1.3599,-1.3597,-1.3592,-1.3593,-1.359,-1.3591,-1.3585,-1.3591,-1.3589,-1.359,-1.359,-1.3589,-1.3584,-1.3584,-1.3584,-1.3584,0,-1.3596,-1.3598,-1.3596,-1.3595,-1.3594,-1.3593,-1.3593,-1.3591,-1.3594,-1.3592,-1.359,-1.3588,-1.3585,-1.3582,-1.3579,-1.3579,-1.3581,-1.3582,-1.358,-1.3579,-1.3577,-1.3577,-1.3597,-1.3582,-1.3582,-1.3582,-1.3583,-1.3583,-1.3588,-1.3586,-1.3586,-1.3584,-1.3584,-1.3583,-1.3581,-1.3581,-1.3579,-1.3577,-1.3578,-1.3575,-1.3573,-1.357,-1.3569,-1.3566,-1.3568,-1.3566,-1.3565,-1.3565,-1.3563,-1.3579,-1.3565,-1.3565,-1.3566,-1.3566,-1.3566,0,-1.3576,-1.3577,-1.3575,-1.3574,-1.3572,-1.3575,-1.3574,-1.3572,-1.3568,-1.3567,-1.3565,-1.3561,-1.3558,-1.3557,-1.3554,-1.3551,-1.3552,-1.355,-1.355,-1.3549,-1.3562,-1.3563,-1.3549,-1.3549,-1.3549,-1.3549,-1.3549,-1.3549,-1.357,-1.3566,-1.3567,-1.3562,-1.3562,-1.3559,-1.3558,-1.3557,-1.3556,-1.3551,-1.3548,-1.3548,-1.3547,-1.3543,-1.354,-1.354,-1.3538,-1.3535,-1.3535,-1.3547,-1.3549,-1.355,-1.3551,-1.3535,-1.3535,-1.3522,-1.3522,-1.3522]}]]